KUIPER-00050

Last updated on Thu Jul 03 2025 00:02:08 GMT+0000 (Coordinated Universal Time)

1 64510U 25134L 25183.58335648 .00002877 00000+0 95305-4 0 9991 2 64510 51.8727 286.9914 0008323 141.8655 302.3747 15.34721458 1998
UTC large
Height (km)
Speed (km/s)
/
Latitude / Longitude
Inclination (degrees)
Orbital Period (minutes)
Azimuth
Elevation
Range (km)
Doppler Factor

Next 0 passes for location: London (51.5072 / 0.1276)

Sorry there are no passes over London.